Погода в Соловатове

Россия / Костромская область     57°34′25″N   43°26′50″E
темп.,
°C
ветер,
м/с
пор.,
м/с
влажн.,
%
обл.,
%
осадки,
мм/ч
давл.,
гПа
погр.,
м
14 мая, пт
пт1400:00+13ю259821 0.3 1017120
03:00+12зюз239964 0.3 101963
06:00+12зюз119564 0.0 101998
09:00+18ююз0169100 0.0 1019472
12:00+22юв1148100 0.0 10191264
15:00+23з12435 0.0 10181651
18:00+20зюз2462100 0.0 1016152
21:00+15юв228191 0.6 101622
15 мая, сб
сб1500:00+14св1298100 2.3 101766
03:00+14в2498100 3.8 1015118
06:00+16вюв2895100 0.4 1014254
09:00+21ююз2480100 0.4 1013506
12:00+25ююв35556 0.0 10121172
15:00+26ю595591 0.0 10111528
18:00+17ююв3109055 4.9 1011298
21:00+17ююз5148397 4.9 1012640
16 мая, вс
вс1600:00+15ююз310961 0.0 1012290
03:00+13ю289820 0.0 1013187
06:00+15ююз39906 0.0 1013299
09:00+19ююз59675 0.0 1014791
12:00+22юз585197 0.0 10141440
15:00+23юз48484 0.0 10132057
18:00+18юз257065 0.0 101495
21:00+15ююз25825 0.0 101587
17 мая, пн
пн1700:00+13юз24880 0.0 101571
03:00+12юз239511 0.0 101660
06:00+14юз2485100 0.0 1017133
09:00+19юз2463100 0.0 1018665
12:00+23юз34495 0.0 10171073
15:00+24юз2446100 0.0 10171189
18:00+23св116329 0.0 101519
21:00+18в248210 0.1 101551
18 мая, вт
вт1800:00+16юв249322 0.1 101559
03:00+14ююв2290100 0.1 101540
06:00+17юв277857 0.0 1015181
09:00+24ююв36475 0.0 1014501
12:00+28ююв59305 0.0 10132734
15:00+29ююв47285 0.0 10122783
18:00+25ююв410500 0.0 1012687
21:00+19юв314735 0.0 1012320